Location: Carbonear
(47.7333°N, 53.2500°W)
Time: 05:28:41
(UTC+00:00)

Oscar 11 - Pass Details

Date: 04 December 2022
Orbit: 611 x 621 km, 97.6° (Epoch: 28 January)

Event Time Altitude Azimuth Distance (km) Brightness Sun altitude
Rises 20:47:13 0° 220° (SW) 2,881 11.7 -10.6°
Reaches altitude 10° 20:51:07 10° 257° (WSW) 1,981 11.2 -11.2°
Maximum altitude 20:52:19 11° 273° (W) 1,916 10.7 -11.4°
Drops below altitude 10° 20:53:31 10° 290° (WNW) 1,983 10.4 -11.6°
Sets 20:57:28 0° 326° (NNW) 2,894 10.7 -12.2°
